Time,TemperatureF,DewpointF,PressureIn,WindDirection,WindDirectionDegrees,WindSpeedMPH,WindSpeedGustMPH,Humidity,HourlyPrecipIn,Conditions,Clouds,dailyrainin,SoftwareType,DateUTC
2013-09-06 00:23:00,77.0,59.0,29.32,WNW,285,1.0,-999.0,55,0.00,,,0.00,,2013-09-06 07:23:00,
2013-09-06 00:32:00,77.0,59.0,29.32,WNW,285,1.0,-999.0,55,0.00,,,0.00,,2013-09-06 07:32:00,
2013-09-06 00:42:00,77.0,59.0,29.32,WNW,285,1.0,-999.0,55,0.00,,,0.00,,2013-09-06 07:42:00,
2013-09-06 01:12:00,74.0,61.0,29.32,SE,142,1.0,-999.0,63,0.00,,,0.00,,2013-09-06 08:12:00,
2013-09-06 01:22:00,74.0,61.0,29.32,SE,142,1.0,-999.0,63,0.00,,,0.00,,2013-09-06 08:22:00,
2013-09-06 01:32:00,74.0,61.0,29.32,SE,142,1.0,-999.0,63,0.00,,,0.00,,2013-09-06 08:32:00,
2013-09-06 01:42:00,74.0,61.0,29.32,SE,142,1.0,-999.0,63,0.00,,,0.00,,2013-09-06 08:42:00,
2013-09-06 02:11:00,75.0,54.0,29.32,SW,230,0.0,-999.0,48,-99.99,,,0.00,,2013-09-06 09:11:00,
2013-09-06 02:22:00,75.0,54.0,29.32,SW,230,0.0,-999.0,48,-99.99,,,0.00,,2013-09-06 09:22:00,
2013-09-06 02:33:00,75.0,54.0,29.32,SW,230,0.0,-999.0,48,-99.99,,,0.00,,2013-09-06 09:33:00,
2013-09-06 02:43:00,75.0,54.0,29.32,SW,230,0.0,-999.0,48,-99.99,,,0.00,,2013-09-06 09:43:00,
2013-09-06 03:23:00,71.0,53.0,29.32,North,357,1.0,-999.0,53,0.00,,,0.00,,2013-09-06 10:23:00,
2013-09-06 03:32:00,71.0,53.0,29.32,North,357,1.0,-999.0,53,0.00,,,0.00,,2013-09-06 10:32:00,
2013-09-06 03:42:00,71.0,53.0,29.32,North,357,1.0,-999.0,53,0.00,,,0.00,,2013-09-06 10:42:00,
2013-09-06 04:12:00,69.0,56.0,29.31,West,281,1.0,-999.0,65,0.00,,,0.00,,2013-09-06 11:12:00,
2013-09-06 04:22:00,69.0,56.0,29.31,West,281,1.0,-999.0,65,0.00,,,0.00,,2013-09-06 11:22:00,
2013-09-06 04:33:00,69.0,56.0,29.31,West,281,1.0,-999.0,65,0.00,,,0.00,,2013-09-06 11:33:00,
2013-09-06 04:42:00,69.0,56.0,29.31,West,281,1.0,-999.0,65,0.00,,,0.00,,2013-09-06 11:42:00,
2013-09-06 05:12:00,68.0,57.0,29.31,South,173,1.0,-999.0,68,0.00,,,0.00,,2013-09-06 12:12:00,
2013-09-06 05:21:00,68.0,57.0,29.31,South,173,1.0,-999.0,68,0.00,,,0.00,,2013-09-06 12:21:00,
2013-09-06 05:32:00,68.0,57.0,29.31,South,173,1.0,-999.0,68,0.00,,,0.00,,2013-09-06 12:32:00,
2013-09-06 05:42:00,68.0,57.0,29.31,South,173,1.0,-999.0,68,0.00,,,0.00,,2013-09-06 12:42:00,
2013-09-06 06:11:00,68.0,56.0,29.32,South,180,2.0,-999.0,65,0.00,,,0.00,,2013-09-06 13:11:00,
2013-09-06 06:22:00,68.0,56.0,29.32,South,180,2.0,-999.0,65,0.00,,,0.00,,2013-09-06 13:22:00,
2013-09-06 06:32:00,68.0,56.0,29.32,South,180,2.0,-999.0,65,0.00,,,0.00,,2013-09-06 13:32:00,
2013-09-06 06:42:00,68.0,56.0,29.32,South,180,2.0,-999.0,65,0.00,,,0.00,,2013-09-06 13:42:00,
2013-09-06 07:11:00,67.0,55.0,29.33,NNE,18,1.0,-999.0,66,-99.99,,,-99.99,,2013-09-06 14:11:00,
2013-09-06 07:22:00,67.0,55.0,29.33,NNE,18,1.0,-999.0,66,-99.99,,,-99.99,,2013-09-06 14:22:00,
2013-09-06 07:32:00,67.0,55.0,29.33,NNE,18,1.0,-999.0,66,-99.99,,,-99.99,,2013-09-06 14:32:00,
2013-09-06 07:42:00,67.0,55.0,29.33,NNE,18,1.0,-999.0,66,-99.99,,,-99.99,,2013-09-06 14:42:00,
2013-09-06 08:11:00,68.0,55.0,29.34,North,357,2.0,-999.0,64,0.00,,,0.00,,2013-09-06 15:11:00,
2013-09-06 08:22:00,68.0,55.0,29.34,North,357,2.0,-999.0,64,0.00,,,0.00,,2013-09-06 15:22:00,
2013-09-06 08:34:00,68.0,55.0,29.34,North,357,2.0,-999.0,64,0.00,,,0.00,,2013-09-06 15:34:00,
2013-09-06 08:43:00,68.0,55.0,29.34,North,357,2.0,-999.0,64,0.00,,,0.00,,2013-09-06 15:43:00,
2013-09-06 09:13:00,77.0,53.0,29.34,WNW,300,1.0,-999.0,44,0.00,,,0.00,,2013-09-06 16:13:00,
2013-09-06 09:24:00,77.0,53.0,29.34,WNW,300,1.0,-999.0,44,0.00,,,0.00,,2013-09-06 16:24:00,
2013-09-06 09:33:00,77.0,53.0,29.34,WNW,300,1.0,-999.0,44,0.00,,,0.00,,2013-09-06 16:33:00,
2013-09-06 09:42:00,77.0,53.0,29.34,WNW,300,1.0,-999.0,44,0.00,,,0.00,,2013-09-06 16:42:00,
2013-09-06 10:13:00,82.0,53.0,29.34,NNW,343,3.0,-999.0,37,0.00,,,0.00,,2013-09-06 17:13:00,
2013-09-06 10:24:00,82.0,53.0,29.34,NNW,343,3.0,-999.0,37,0.00,,,0.00,,2013-09-06 17:24:00,
2013-09-06 10:34:00,82.0,53.0,29.34,NNW,343,3.0,-999.0,37,0.00,,,0.00,,2013-09-06 17:34:00,
2013-09-06 10:43:00,82.0,53.0,29.34,NNW,343,3.0,-999.0,37,0.00,,,0.00,,2013-09-06 17:43:00,
2013-09-06 11:22:00,81.0,53.0,29.33,West,276,5.0,-999.0,38,0.01,,,-99.99,,2013-09-06 18:22:00,
2013-09-06 11:32:00,81.0,53.0,29.33,West,276,5.0,-999.0,38,0.01,,,-99.99,,2013-09-06 18:32:00,
2013-09-06 11:42:00,81.0,53.0,29.33,West,276,5.0,-999.0,38,0.01,,,-99.99,,2013-09-06 18:42:00,
2013-09-06 12:12:00,86.0,52.0,29.32,WNW,299,5.0,-999.0,31,0.00,,,0.00,,2013-09-06 19:12:00,
2013-09-06 12:22:00,86.0,52.0,29.32,WNW,299,5.0,-999.0,31,0.00,,,0.00,,2013-09-06 19:22:00,
2013-09-06 12:32:00,86.0,52.0,29.32,WNW,299,5.0,-999.0,31,0.00,,,0.00,,2013-09-06 19:32:00,
2013-09-06 12:42:00,86.0,52.0,29.32,WNW,299,5.0,-999.0,31,0.00,,,0.00,,2013-09-06 19:42:00,
2013-09-06 13:23:00,87.0,53.0,29.30,WSW,237,2.0,-999.0,32,0.00,,,-99.99,,2013-09-06 20:23:00,
2013-09-06 13:32:00,87.0,53.0,29.30,WSW,237,2.0,-999.0,32,0.00,,,-99.99,,2013-09-06 20:32:00,
2013-09-06 13:42:00,87.0,53.0,29.30,WSW,237,2.0,-999.0,32,0.00,,,-99.99,,2013-09-06 20:42:00,
2013-09-06 14:12:00,90.0,55.0,29.28,West,269,5.0,-999.0,31,0.01,,,0.00,,2013-09-06 21:12:00,
2013-09-06 14:22:00,90.0,55.0,29.28,West,269,5.0,-999.0,31,0.01,,,0.00,,2013-09-06 21:22:00,
2013-09-06 14:34:00,90.0,55.0,29.28,West,269,5.0,-999.0,31,0.01,,,0.00,,2013-09-06 21:34:00,
2013-09-06 14:43:00,90.0,55.0,29.28,West,269,5.0,-999.0,31,0.01,,,0.00,,2013-09-06 21:43:00,
2013-09-06 15:23:00,92.0,55.0,29.25,West,278,4.0,-999.0,29,0.00,,,0.00,,2013-09-06 22:23:00,
2013-09-06 15:33:00,92.0,55.0,29.25,West,278,4.0,-999.0,29,0.00,,,0.00,,2013-09-06 22:33:00,
2013-09-06 15:44:00,92.0,55.0,29.25,West,278,4.0,-999.0,29,0.00,,,0.00,,2013-09-06 22:44:00,
2013-09-06 16:12:00,94.0,55.0,29.22,South,182,5.0,-999.0,27,0.00,,,0.00,,2013-09-06 23:12:00,
2013-09-06 16:23:00,94.0,55.0,29.22,South,182,5.0,-999.0,27,0.00,,,0.00,,2013-09-06 23:23:00,
2013-09-06 16:33:00,94.0,55.0,29.22,South,182,5.0,-999.0,27,0.00,,,0.00,,2013-09-06 23:33:00,
2013-09-06 16:42:00,94.0,55.0,29.22,South,182,5.0,-999.0,27,0.00,,,0.00,,2013-09-06 23:42:00,
2013-09-06 17:12:00,95.0,56.0,29.20,SW,231,5.0,-999.0,27,0.00,,,0.00,,2013-09-07 00:12:00,
2013-09-06 17:22:00,95.0,56.0,29.20,SW,231,5.0,-999.0,27,0.00,,,0.00,,2013-09-07 00:22:00,
2013-09-06 17:32:00,95.0,56.0,29.20,SW,231,5.0,-999.0,27,0.00,,,0.00,,2013-09-07 00:32:00,
2013-09-06 17:42:00,95.0,56.0,29.20,SW,231,5.0,-999.0,27,0.00,,,0.00,,2013-09-07 00:42:00,
2013-09-06 18:12:00,93.0,55.0,29.19,SW,234,6.0,-999.0,28,0.00,,,-99.99,,2013-09-07 01:12:00,
2013-09-06 18:21:00,93.0,55.0,29.19,SW,234,6.0,-999.0,28,0.00,,,-99.99,,2013-09-07 01:21:00,
2013-09-06 18:32:00,93.0,55.0,29.19,SW,234,6.0,-999.0,28,0.00,,,-99.99,,2013-09-07 01:32:00,
2013-09-06 18:42:00,93.0,55.0,29.19,SW,234,6.0,-999.0,28,0.00,,,-99.99,,2013-09-07 01:42:00,
2013-09-06 19:12:00,90.0,56.0,29.19,SSW,213,3.0,-999.0,31,0.00,,,0.00,,2013-09-07 02:12:00,
2013-09-06 19:23:00,90.0,56.0,29.19,SSW,213,3.0,-999.0,31,0.00,,,0.00,,2013-09-07 02:23:00,
2013-09-06 19:32:00,90.0,56.0,29.19,SSW,213,3.0,-999.0,31,0.00,,,0.00,,2013-09-07 02:32:00,
2013-09-06 19:42:00,90.0,56.0,29.19,SSW,213,3.0,-999.0,31,0.00,,,0.00,,2013-09-07 02:42:00,
2013-09-06 20:11:00,86.0,55.0,29.21,South,180,5.0,-999.0,34,0.00,,,0.00,,2013-09-07 03:11:00,
2013-09-06 20:23:00,86.0,55.0,29.21,South,180,5.0,-999.0,34,0.00,,,0.00,,2013-09-07 03:23:00,
2013-09-06 20:34:00,86.0,55.0,29.21,South,180,5.0,-999.0,34,0.00,,,0.00,,2013-09-07 03:34:00,
2013-09-06 20:44:00,86.0,55.0,29.21,South,180,5.0,-999.0,34,0.00,,,0.00,,2013-09-07 03:44:00,
2013-09-06 21:23:00,85.0,55.0,29.23,ENE,64,7.0,-999.0,37,0.00,,,0.00,,2013-09-07 04:23:00,
2013-09-06 21:34:00,85.0,55.0,29.23,ENE,64,7.0,-999.0,37,0.00,,,0.00,,2013-09-07 04:34:00,
2013-09-06 21:43:00,85.0,55.0,29.23,ENE,64,7.0,-999.0,37,0.00,,,0.00,,2013-09-07 04:43:00,
2013-09-06 22:13:00,83.0,57.0,29.24,ESE,123,4.0,-999.0,42,0.00,,,0.00,,2013-09-07 05:13:00,
2013-09-06 22:23:00,83.0,57.0,29.24,ESE,123,4.0,-999.0,42,0.00,,,0.00,,2013-09-07 05:23:00,
2013-09-06 22:33:00,83.0,57.0,29.24,ESE,123,4.0,-999.0,42,0.00,,,0.00,,2013-09-07 05:33:00,
2013-09-06 22:42:00,83.0,57.0,29.24,ESE,123,4.0,-999.0,42,0.00,,,0.00,,2013-09-07 05:42:00,
2013-09-06 23:13:00,81.0,57.0,29.26,ESE,115,5.0,-999.0,44,0.00,,,0.00,,2013-09-07 06:13:00,
2013-09-06 23:21:00,81.0,57.0,29.26,ESE,115,5.0,-999.0,44,0.00,,,0.00,,2013-09-07 06:21:00,
2013-09-06 23:33:00,81.0,57.0,29.26,ESE,115,5.0,-999.0,44,0.00,,,0.00,,2013-09-07 06:33:00,
2013-09-06 23:42:00,81.0,57.0,29.26,ESE,115,5.0,-999.0,44,0.00,,,0.00,,2013-09-07 06:42:00,